Temp
7 7 7 7 6 6 6 6 6 6 5 5 5 6 5 5 5 5 5 6 6 6 6 7 6 6 6 5 6 5 6 7 7 6 6 6 6 6 6 6 6 6 6
7 7 7 6 6 6 6 6 6 6 5 5 5 5 5 5 5 5 5 5 6 6 6 6 6 6 5 5 5 6 6 6 7 6 6 6 6 6 6 6 6 6 6
6 6 7 6 6 6 6 5 5 5 6 5 5 5 5 5 5 4 4 5 6 6 6 6 6 5 5 5 5 5 6 6 6 7 6 6 6 6 6 6 6 6 6
7 7 7 7 7 6 5 5 5 5 5 5 5 5 5 5 5 5 5 5 5 6 5 6 5 4 4 5 5 5 5 5 6 6 6 6 6 6 6 6 6 6 6
7 7 7 7 6 5 5 5 5 5 5 5 5 5 5 4 5 5 4 4 4 5 5 5 4 4 4 5 5 5 5 5 5 6 5 6 6 6 6 6 6 6 6
6 6 7 7 6 5 5 5 4 4 4 5 5 5 4 4 4 4 4 4 4 4 4 4 4 4 4 5 5 5 5 5 5 5 5 5 5 5 5 6 5 6 6
7 6 7 7 5 5 5 4 4 4 3 4 4 4 4 4 4 4 4 4 4 4 4 4 4 4 4 5 4 5 5 5 5 5 5 5 5 5 5 5 6 6 6
7 6 7 6 5 5 5 5 4 3 3 3 4 4 4 4 4 4 4 4 3 3 4 4 4 5 5 5 4 5 5 5 5 5 5 5 5 5 5 5 5 5 6
7 6 7 6 5 5 5 5 4 4 4 3 3 3 3 3 4 4 3 3 3 3 3 3 4 4 5 5 5 5 5 5 5 5 5 5 5 5 5 5 5 5 5
6 6 6 6 5 5 4 5 5 4 4 3 3 3 2 2 3 3 4 3 3 2 2 2 3 4 4 4 5 4 4 4 5 5 5 5 5 6 6 6 6 6 6
6 6 6 6 6 4 4 4 4 4 3 3 3 3 3 2 1 2 3 3 2 2 2 3 4 4 4 4 5 5 5 5 5 5 5 5 5 5 6 6 5 6 6
6 6 6 6 6 5 3 4 3 3 3 3 3 3 3 2 2 3 3 3 2 2 3 3 4 4 4 4 5 5 5 5 5 5 5 5 5 5 5 6 6 6 6
6 6 6 6 5 5 3 3 3 3 3 2 2 3 3 3 2 2 2 3 1 1 3 3 4 4 4 4 5 5 5 5 5 5 5 5 5 5 5 5 6 6 6
5 6 6 5 5 5 3 2 3 3 3 2 2 2 2 2 2 2 2 2 2 2 3 3 4 4 4 4 5 5 5 5 5 5 5 5 5 5 5 5 5 6 5
6 5 5 5 5 4 3 2 2 3 3 2 2 2 1 1 1 2 2 2 2 3 3 3 3 4 4 4 4 5 5 5 5 5 5 4 5 5 5 5 5 5 5
5 5 5 5 5 4 4 3 2 2 2 2 2 1 1 0 1 1 2 2 3 3 4 3 3 3 4 4 4 4 4 4 4 4 4 4 4 4 5 5 5 5 5
5 5 5 5 5 5 4 3 2 2 2 1 1 1 1 1 1 2 2 2 3 3 3 3 3 3 4 4 4 4 4 4 4 4 4 4 4 4 4 4 4 5 5
5 5 5 5 5 4 4 4 2 2 2 1 1 1 1 0 1 2 2 3 3 3 3 3 2 3 3 4 4 4 3 4 4 4 4 4 4 4 4 4 4 4 4
5 5 5 5 4 4 4 3 3 2 1 1 1 2 1 1 1 1 2 2 1 2 2 2 2 2 2 3 3 3 3 3 3 3 3 3 3 3 4 4 4 4 4
5 5 4 5 4 4 4 3 2 2 1 1 1 1 2 1 0 1 1 1 1 1 1 1 1 1 2 2 2 2 2 2 2 2 3 3 3 3 3 3 3 3 3
5 5 5 5 5 4 3 4 3 2 2 0 1 -0 0 1 1 1 1 0 1 1 1 1 1 1 1 1 2 2 2 2 2 2 2 2 2 2 2 3 3 3 3
5 4 4 4 4 4 4 2 3 2 2 1 -1 1 1 -0 1 0 0 -1 -1 -1 -1 -1 -1 -1 -0 0 1 1 2 2 2 2 2 2 2 2 2 2 2 2 2
3 4 3 3 3 4 3 3 2 1 1 1 0 0 -0 -1 0 0 -1 -0 -1 -1 -0 -1 -1 -1 -2 -1 -1 -0 0 1 1 2 2 2 2 2 2 2 1 1 1
3 3 3 3 3 3 3 3 2 1 1 1 -0 -1 -0 0 -1 -2 0 -1 -1 -1 -1 -1 -2 -2 -3 -3 -2 -1 -1 -0 0 1 1 1 1 1 1 1 1 1 1
2 2 2 2 3 2 2 2 2 1 -0 -1 -1 -0 -1 -1 -0 -1 -2 -1 -1 -1 -1 -3 -2 -4 -3 -3 -2 -2 -2 -1 -1 -1 -1 -0 -0 -0 0 -0 0 0 0
1 0 1 1 1 1 0 0 0 1 0 -1 -1 -1 -1 -1 -1 -1 -1 -2 -2 -3 -1 -2 -2 -3 -3 -4 -4 -3 -2 -2 -2 -2 -2 -1 -1 -1 -1 -1 -0 -0 -1
Height
3108 3108 3109 3108 3108 3108 3108 3108 3108 3108 3109 3111 3111 3112 3113 3114 3115 3116 3118 3120 3123 3123 3125 3126 3127 3129 3130 3132 3134 3135 3137 3138 3140 3142 3143 3145 3146 3147 3149 3150 3151 3153 3155
3105 3106 3106 3105 3105 3105 3105 3105 3106 3106 3107 3108 3109 3109 3110 3112 3112 3114 3117 3119 3122 3123 3124 3125 3126 3128 3130 3133 3134 3136 3137 3138 3140 3143 3144 3145 3147 3148 3149 3152 3154 3155 3156
3102 3102 3102 3101 3100 3100 3101 3101 3102 3102 3103 3106 3107 3107 3107 3109 3108 3108 3116 3119 3121 3122 3123 3123 3123 3126 3130 3133 3135 3137 3138 3140 3142 3144 3145 3146 3148 3150 3151 3153 3154 3156 3157
3099 3099 3098 3096 3095 3095 3097 3098 3099 3099 3100 3102 3103 3105 3106 3107 3101 3107 3113 3116 3119 3120 3121 3116 3117 3123 3129 3132 3135 3137 3139 3140 3142 3144 3146 3147 3149 3151 3152 3153 3155 3157 3158
3095 3095 3094 3092 3091 3092 3093 3094 3095 3095 3096 3098 3100 3101 3103 3105 3106 3106 3109 3112 3116 3118 3120 3121 3120 3124 3128 3132 3134 3137 3139 3141 3143 3144 3146 3148 3150 3151 3153 3154 3156 3157 3159
3091 3092 3091 3089 3089 3089 3089 3089 3089 3089 3092 3094 3096 3098 3098 3101 3102 3103 3105 3109 3113 3118 3120 3122 3123 3124 3128 3131 3134 3137 3139 3142 3144 3145 3147 3149 3151 3152 3154 3155 3156 3158 3159
3088 3089 3088 3086 3086 3086 3086 3085 3084 3084 3087 3089 3090 3094 3094 3096 3095 3098 3102 3104 3109 3116 3117 3119 3122 3124 3128 3131 3134 3137 3139 3142 3144 3145 3147 3149 3151 3152 3154 3155 3157 3158 3159
3085 3086 3084 3084 3084 3084 3083 3083 3082 3082 3084 3085 3088 3093 3085 3082 3086 3092 3097 3100 3105 3111 3116 3117 3120 3123 3127 3130 3134 3136 3138 3141 3143 3145 3147 3149 3151 3152 3154 3156 3156 3158 3159
3082 3083 3082 3081 3081 3081 3081 3081 3081 3080 3083 3082 3084 3086 3084 3084 3084 3092 3092 3097 3101 3105 3109 3117 3119 3122 3125 3129 3133 3135 3137 3139 3141 3143 3146 3147 3150 3152 3154 3155 3156 3158 3159
3079 3079 3080 3079 3078 3079 3078 3078 3076 3078 3079 3082 3081 3086 3084 3090 3088 3093 3094 3096 3099 3106 3110 3115 3118 3121 3125 3128 3131 3134 3137 3138 3140 3142 3145 3146 3148 3150 3152 3154 3155 3157 3158
3075 3076 3077 3077 3076 3076 3076 3076 3075 3075 3076 3078 3081 3083 3084 3084 3089 3093 3093 3096 3101 3104 3111 3112 3118 3121 3124 3128 3130 3133 3135 3137 3140 3141 3143 3146 3147 3149 3150 3152 3153 3155 3156
3072 3073 3074 3074 3074 3074 3074 3074 3073 3074 3076 3077 3077 3079 3080 3084 3086 3091 3093 3097 3101 3105 3110 3113 3117 3120 3124 3127 3129 3131 3134 3136 3138 3140 3142 3144 3146 3147 3148 3149 3151 3152 3153
3067 3069 3071 3071 3072 3072 3073 3073 3074 3074 3075 3077 3079 3079 3080 3082 3084 3089 3092 3095 3100 3105 3109 3113 3116 3118 3122 3126 3128 3130 3133 3134 3136 3138 3140 3142 3144 3145 3146 3147 3148 3150 3151
3064 3064 3067 3068 3069 3070 3071 3073 3074 3074 3075 3078 3077 3078 3079 3081 3085 3088 3093 3097 3101 3104 3107 3110 3114 3119 3121 3123 3126 3128 3130 3132 3133 3135 3137 3140 3140 3142 3143 3144 3146 3147 3148
3060 3061 3062 3065 3066 3067 3068 3071 3073 3074 3074 3076 3079 3079 3081 3083 3086 3090 3093 3097 3102 3105 3107 3110 3112 3115 3118 3121 3122 3125 3127 3129 3130 3132 3135 3136 3137 3138 3139 3140 3141 3143 3144
3055 3056 3057 3060 3063 3065 3066 3068 3072 3073 3074 3077 3079 3081 3084 3086 3089 3091 3093 3096 3100 3102 3105 3108 3110 3113 3115 3117 3120 3122 3124 3126 3127 3128 3131 3132 3134 3135 3135 3136 3137 3139 3140
3051 3050 3052 3055 3058 3060 3063 3065 3068 3072 3074 3076 3078 3081 3084 3087 3091 3093 3095 3097 3099 3102 3104 3106 3108 3110 3113 3116 3117 3118 3120 3122 3123 3125 3127 3129 3131 3132 3133 3133 3135 3136 3137
3043 3045 3047 3049 3053 3055 3058 3061 3064 3068 3072 3075 3078 3079 3082 3084 3088 3091 3094 3096 3098 3099 3101 3103 3106 3108 3110 3112 3114 3115 3116 3118 3120 3121 3123 3125 3126 3128 3129 3130 3131 3132 3133
3038 3040 3041 3043 3047 3050 3053 3056 3060 3063 3066 3070 3074 3077 3080 3081 3083 3086 3089 3091 3094 3097 3099 3101 3102 3103 3104 3107 3109 3111 3112 3114 3116 3117 3119 3120 3122 3123 3125 3126 3126 3127 3128
3031 3033 3035 3037 3040 3044 3047 3050 3053 3057 3060 3065 3070 3073 3074 3079 3081 3083 3084 3087 3091 3093 3096 3099 3099 3100 3101 3103 3105 3106 3107 3109 3110 3112 3113 3115 3116 3118 3120 3121 3122 3122 3123
3024 3028 3030 3033 3035 3036 3039 3043 3046 3050 3054 3060 3064 3067 3071 3074 3075 3078 3081 3084 3086 3088 3091 3092 3094 3097 3098 3099 3100 3101 3103 3105 3107 3108 3109 3110 3112 3113 3114 3115 3117 3117 3117
3017 3020 3023 3027 3029 3032 3033 3036 3040 3045 3049 3053 3057 3061 3064 3068 3070 3072 3077 3079 3082 3084 3086 3087 3088 3090 3092 3095 3096 3097 3097 3101 3101 3103 3104 3106 3107 3109 3109 3110 3110 3111 3112
3008 3011 3014 3017 3019 3022 3026 3028 3032 3036 3040 3043 3048 3053 3058 3061 3064 3065 3070 3073 3076 3079 3079 3082 3083 3085 3086 3089 3089 3092 3092 3093 3096 3097 3097 3099 3100 3102 3103 3103 3103 3105 3106
2997 3002 3005 3008 3010 3012 3016 3019 3023 3028 3032 3037 3042 3047 3050 3054 3057 3059 3063 3064 3069 3071 3073 3075 3078 3079 3080 3082 3083 3085 3086 3087 3088 3090 3092 3093 3094 3096 3096 3097 3097 3098 3097
2986 2990 2994 2997 3000 3002 3005 3010 3014 3018 3023 3028 3033 3036 3040 3044 3048 3051 3055 3057 3063 3064 3065 3069 3070 3073 3074 3076 3078 3079 3079 3080 3081 3083 3084 3087 3087 3088 3089 3088 3089 3090 3089
2977 2981 2984 2988 2990 2992 2996 3000 3005 3009 3012 3016 3021 3026 3031 3035 3039 3043 3046 3050 3053 3057 3059 3061 3063 3066 3069 3070 3071 3073 3073 3075 3076 3077 3078 3079 3080 3081 3081 3081 3081 3082 3082
Wind_Speed
14 13 14 12 14 14 11 7 8 12 11 16 17 18 17 17 14 11 15 13 10 14 13 14 15 15 14 14 14 15 16 16 17 17 17 17 17 18 19 18 20 19 18
14 13 14 17 21 18 17 16 13 14 17 17 20 20 20 19 23 14 9 15 13 16 16 16 16 18 17 17 16 16 16 17 17 17 17 18 18 17 18 19 17 17 17
13 16 20 20 21 21 19 16 14 15 18 17 18 20 19 24 21 18 15 20 19 19 17 18 22 21 19 18 17 16 16 15 16 16 17 17 17 16 17 18 18 17 16
19 18 19 21 21 17 15 16 15 16 17 19 19 20 19 24 16 17 17 22 21 22 20 16 23 21 18 18 17 17 17 16 16 16 16 17 17 16 16 17 16 15 15
19 18 19 19 16 13 14 17 18 19 19 19 20 21 22 24 21 23 19 25 23 24 23 21 13 16 17 18 17 17 16 15 15 16 15 15 15 15 14 14 15 14 14
18 15 17 16 12 11 14 17 19 23 23 23 21 21 24 24 26 28 25 26 27 22 24 24 19 19 19 19 18 16 15 14 14 14 14 14 14 15 14 16 15 14 14
15 13 15 14 10 11 14 13 14 20 23 25 25 21 25 26 32 32 29 30 30 30 28 27 22 21 21 19 17 16 15 14 14 14 14 14 14 14 13 12 12 14 13
16 14 13 12 9 9 10 8 13 14 15 21 23 25 14 45 39 22 26 33 37 34 28 24 22 21 21 19 18 17 16 17 16 15 15 15 14 14 14 13 12 12 11
16 14 12 10 10 9 10 9 13 19 13 15 24 16 33 28 39 23 29 37 31 41 35 23 21 20 19 18 17 17 16 15 15 17 17 16 16 14 14 14 14 13 13
19 14 11 9 10 10 11 12 13 18 19 12 26 30 30 22 20 32 36 33 18 32 30 21 20 19 18 17 17 16 15 14 14 14 14 13 13 14 15 15 14 13 12
20 15 12 11 10 9 9 8 5 7 15 16 20 25 24 22 31 22 28 22 17 29 25 21 20 18 16 15 15 14 14 15 14 14 14 13 12 11 12 12 13 13 12
22 17 14 12 11 9 7 5 5 8 10 17 21 22 18 15 20 24 27 20 29 28 16 17 18 17 16 15 14 13 14 14 14 14 13 12 12 12 12 14 14 14 15
22 20 15 13 12 10 8 3 4 6 16 17 19 21 18 13 23 22 21 21 27 25 18 20 17 16 16 16 14 13 14 14 15 14 13 13 12 13 13 14 14 14 14
23 21 17 15 13 12 10 8 3 9 9 8 9 9 12 19 20 18 19 22 21 21 19 16 18 20 17 13 14 15 15 15 14 14 13 12 13 14 15 15 15 17 17
22 21 20 16 14 13 14 11 12 10 9 8 6 4 6 11 13 15 16 19 20 17 18 16 16 17 16 16 14 16 16 16 16 15 14 14 15 15 14 16 16 17 17
25 24 23 20 17 16 16 14 18 15 11 9 10 11 11 14 15 12 12 12 15 14 14 16 16 18 16 14 17 17 16 17 17 16 15 16 15 15 15 16 16 17 17
29 29 26 23 20 19 19 20 21 20 17 15 14 14 17 18 17 19 20 22 27 21 16 16 17 18 18 18 18 18 18 18 18 18 17 17 16 16 16 16 16 17 18
30 27 28 27 24 23 22 23 24 26 24 22 19 19 18 20 21 19 19 21 21 22 23 21 20 20 20 20 19 18 18 19 19 19 19 19 19 18 17 17 18 18 19
26 25 26 28 28 27 27 27 28 29 28 25 25 24 22 20 18 21 19 17 17 19 20 23 22 20 20 21 20 20 20 20 20 21 21 21 21 20 20 20 20 20 20
30 29 28 27 26 29 30 31 33 33 32 31 29 30 25 22 22 21 20 21 21 21 22 21 22 21 21 22 21 21 22 22 22 23 23 23 23 23 22 23 23 23 23
29 28 30 28 27 29 34 35 36 37 38 37 35 32 31 27 26 25 27 27 24 21 23 29 27 25 22 22 22 23 23 24 23 24 24 24 25 25 25 25 25 26 26
32 32 33 33 35 33 35 37 38 37 38 39 37 37 34 32 30 31 30 30 28 31 31 28 30 27 25 24 24 25 26 26 25 25 25 25 25 26 26 27 27 28 29
38 38 38 36 35 37 39 40 40 41 41 42 43 42 40 38 35 31 32 32 34 28 28 27 24 27 29 26 27 27 28 28 27 27 27 27 27 26 27 28 29 30 31
44 42 41 38 37 38 39 41 41 42 42 42 40 39 39 38 36 39 34 35 33 33 30 28 35 32 32 31 31 30 29 29 28 29 29 28 28 28 28 30 31 31 31
46 43 41 40 39 39 43 42 42 43 42 41 40 41 41 38 38 41 37 33 35 29 33 33 35 32 28 30 29 32 30 30 30 30 30 30 30 30 31 32 33 33 34
43 42 41 41 42 39 41 41 42 43 44 43 43 42 40 42 42 40 40 39 35 35 34 37 36 28 32 30 31 28 29 32 31 32 32 32 32 32 33 34 35 35 36
Wind_Direction
275 272 275 273 292 287 276 274 254 229 221 215 214 220 220 203 180 169 199 188 211 195 186 189 173 172 162 159 152 148 146 148 146 144 143 136 136 135 137 137 138 139 137
261 260 268 274 287 276 270 271 258 244 235 228 220 223 218 216 199 201 199 188 210 191 180 176 183 180 167 162 155 154 145 142 148 149 150 143 139 145 144 143 142 144 144
263 273 281 284 282 277 269 258 247 242 239 231 232 229 217 226 228 230 195 200 204 193 177 182 183 172 166 163 162 156 149 145 146 150 151 151 147 148 153 153 150 150 150
277 283 286 287 285 273 257 246 245 243 237 234 226 235 229 225 216 213 208 203 194 185 181 170 161 149 163 164 162 159 157 156 152 150 151 151 149 150 150 151 155 158 154
281 288 293 289 281 271 251 251 249 242 232 236 229 229 229 222 228 218 212 198 191 192 186 201 194 171 175 174 171 167 165 163 160 158 159 158 155 150 157 156 157 159 157
283 289 291 284 274 268 264 266 254 244 233 234 235 230 225 222 221 220 213 199 198 197 192 197 195 183 180 181 178 177 174 169 164 164 161 161 161 158 159 164 162 162 163
283 292 295 282 267 268 284 266 250 241 229 225 223 227 231 234 229 220 221 200 211 208 192 198 192 188 185 185 181 178 175 176 176 180 179 179 177 173 170 168 166 177 179
282 295 294 280 268 264 285 256 256 231 228 209 227 219 173 198 210 209 229 212 203 188 193 193 196 197 195 193 195 191 189 188 189 195 198 196 194 191 186 184 185 190 195
281 290 289 280 270 251 261 259 250 247 226 229 212 186 184 173 189 205 199 201 197 194 186 194 193 197 193 188 190 195 198 200 197 200 205 207 209 207 209 207 208 207 211
281 286 289 278 266 267 271 284 262 238 231 197 205 218 193 212 213 204 209 199 207 198 182 190 192 198 200 192 189 187 187 193 198 199 203 204 204 208 216 220 224 228 225
278 279 285 281 268 265 271 288 308 239 207 211 212 217 222 231 239 233 192 188 223 175 197 183 193 198 202 202 200 196 193 199 204 207 209 213 214 213 214 217 221 220 221
273 269 276 277 271 267 265 282 328 255 230 211 216 225 235 230 212 224 205 206 190 170 182 183 189 191 194 193 196 197 197 201 206 212 216 217 222 223 224 227 230 229 227
262 267 269 266 266 256 246 230 284 259 227 227 232 239 245 247 222 217 198 205 194 179 187 187 190 192 196 198 202 210 215 216 217 218 220 224 223 227 232 234 240 245 243
261 262 261 257 255 249 235 205 231 116 144 192 217 225 214 190 195 215 170 170 180 183 185 189 203 206 203 202 212 217 221 222 225 224 219 218 224 229 235 240 244 247 249
255 261 263 256 243 236 231 203 186 159 137 143 130 152 148 143 151 173 177 180 186 189 194 197 210 217 212 208 216 225 221 223 220 222 221 222 229 237 243 245 244 246 247
256 257 258 252 242 230 227 217 199 188 182 191 175 167 173 183 183 195 185 182 196 208 217 219 219 225 223 216 221 228 227 226 225 226 225 232 236 242 245 249 250 249 250
254 252 250 245 238 231 223 219 207 206 205 197 195 187 178 181 195 198 198 201 201 211 213 224 229 234 231 226 224 226 228 229 230 233 235 238 242 245 251 253 255 256 255
248 247 247 244 235 229 228 222 219 213 212 210 203 208 212 209 198 207 210 210 214 213 214 228 238 232 230 230 229 230 232 232 232 234 239 241 245 248 251 253 255 256 257
239 242 240 243 239 232 224 221 220 219 220 223 217 212 215 219 225 215 218 225 229 226 232 235 233 241 242 238 232 231 234 236 238 237 241 244 247 248 251 254 254 256 257
236 231 229 233 236 232 227 222 219 220 220 222 225 223 217 226 227 231 226 225 231 238 242 242 242 241 244 246 245 242 240 239 239 242 242 245 249 249 249 251 254 255 256
238 233 237 238 238 237 229 227 223 221 221 220 223 227 229 233 230 234 228 233 233 230 234 241 240 244 248 249 250 251 252 250 248 248 249 249 252 254 256 258 260 261 264
239 244 245 249 250 245 242 229 227 227 225 223 223 230 232 234 235 225 236 237 235 239 244 249 247 242 237 242 246 248 249 251 253 256 257 256 256 259 260 261 262 261 261
247 252 256 258 254 249 238 236 226 223 224 224 223 227 230 230 234 234 235 239 250 234 241 244 249 253 245 246 245 247 249 249 251 251 253 256 256 258 259 260 261 262 262
251 253 254 254 254 249 238 233 232 226 227 228 226 229 231 232 234 237 237 233 237 254 240 236 238 250 257 250 246 247 250 251 252 253 255 256 259 260 261 261 262 264 265
247 246 252 257 254 243 238 233 231 229 228 228 229 227 227 230 232 240 233 244 235 238 238 244 253 256 259 263 254 245 248 252 255 257 258 259 260 261 261 264 265 266 268
242 242 241 245 249 239 236 232 231 230 231 230 227 229 229 230 230 233 241 238 244 237 246 247 255 256 263 266 267 258 255 253 255 257 259 261 263 262 264 265 267 268 270